Time,TemperatureF,DewpointF,PressureIn,WindDirection,WindDirectionDegrees,WindSpeedMPH,WindSpeedGustMPH,Humidity,HourlyPrecipIn,Conditions,Clouds,dailyrainin,SoftwareType,DateUTC
2013-02-23 00:01:00,25.2,23.5,30.24,East,90,0.0,-999.0,93,-99.99,,,0.00,Acu-Link.com,2013-02-23 05:01:00,
2013-02-23 00:16:00,24.6,23.1,30.24,ESE,112,0.0,-999.0,94,-99.99,,,0.00,Acu-Link.com,2013-02-23 05:16:00,
2013-02-23 00:31:00,26.1,24.6,30.24,ESE,112,0.0,-999.0,94,-99.99,,,0.00,Acu-Link.com,2013-02-23 05:31:00,
2013-02-23 00:46:00,25.3,24.3,30.23,ESE,112,0.0,-999.0,96,-99.99,,,0.00,Acu-Link.com,2013-02-23 05:46:00,
2013-02-23 01:01:00,26.1,25.4,30.23,WNW,292,0.0,-999.0,97,-99.99,,,0.00,Acu-Link.com,2013-02-23 06:01:00,
2013-02-23 01:16:00,27.1,25.6,30.22,SSW,202,0.0,-999.0,94,-99.99,,,0.00,Acu-Link.com,2013-02-23 06:16:00,
2013-02-23 01:31:00,27.3,25.8,30.22,South,180,1.1,-999.0,94,-99.99,,,0.00,Acu-Link.com,2013-02-23 06:31:00,
2013-02-23 01:47:00,27.3,26.1,30.22,SSW,202,0.0,-999.0,95,-99.99,,,0.00,Acu-Link.com,2013-02-23 06:47:00,
2013-02-23 02:02:00,27.9,26.4,30.22,WSW,247,0.0,-999.0,94,-99.99,,,0.00,Acu-Link.com,2013-02-23 07:02:00,
2013-02-23 02:17:00,27.9,26.1,30.23,SW,225,0.0,-999.0,93,-99.99,,,0.00,Acu-Link.com,2013-02-23 07:17:00,
2013-02-23 02:32:00,27.9,26.4,30.22,West,270,0.0,-999.0,94,-99.99,,,0.00,Acu-Link.com,2013-02-23 07:32:00,
2013-02-23 02:47:00,27.9,26.1,30.21,West,270,0.0,-999.0,93,-99.99,,,0.00,Acu-Link.com,2013-02-23 07:47:00,
2013-02-23 03:02:00,28.0,26.2,30.21,WNW,292,0.0,-999.0,93,-99.99,,,0.00,Acu-Link.com,2013-02-23 08:02:00,
2013-02-23 03:17:00,28.0,26.0,30.20,WNW,292,0.0,-999.0,92,-99.99,,,0.00,Acu-Link.com,2013-02-23 08:17:00,
2013-02-23 03:32:00,28.2,25.9,30.20,West,270,0.0,-999.0,91,-99.99,,,0.00,Acu-Link.com,2013-02-23 08:32:00,
2013-02-23 03:47:00,28.4,26.4,30.19,WNW,292,0.0,-999.0,92,-99.99,,,0.00,Acu-Link.com,2013-02-23 08:47:00,
2013-02-23 04:20:00,28.4,26.4,30.19,West,270,0.0,-999.0,92,-99.99,,,0.00,Acu-Link.com,2013-02-23 09:20:00,
2013-02-23 04:35:00,28.6,26.6,30.18,SE,135,0.0,-999.0,92,-99.99,,,0.00,Acu-Link.com,2013-02-23 09:35:00,
2013-02-23 04:50:00,28.6,26.3,30.18,East,90,0.0,-999.0,91,-99.99,,,0.00,Acu-Link.com,2013-02-23 09:50:00,
2013-02-23 05:05:00,29.1,26.5,30.18,ESE,112,0.0,-999.0,90,-99.99,,,0.00,Acu-Link.com,2013-02-23 10:05:00,
2013-02-23 05:20:00,28.9,26.6,30.18,ESE,112,0.0,-999.0,91,-99.99,,,0.00,Acu-Link.com,2013-02-23 10:20:00,
2013-02-23 05:35:00,29.1,26.5,30.18,ESE,112,0.0,-999.0,90,-99.99,,,0.00,Acu-Link.com,2013-02-23 10:35:00,
2013-02-23 05:50:00,29.1,26.5,30.18,North,0,0.0,-999.0,90,-99.99,,,0.00,Acu-Link.com,2013-02-23 10:50:00,
2013-02-23 06:06:00,29.1,26.8,30.17,WNW,292,0.0,-999.0,91,-99.99,,,0.00,Acu-Link.com,2013-02-23 11:06:00,
2013-02-23 06:21:00,29.1,26.8,30.16,WNW,292,0.0,-999.0,91,-99.99,,,0.00,Acu-Link.com,2013-02-23 11:21:00,
2013-02-23 06:36:00,29.1,26.8,30.16,West,270,0.0,-999.0,91,-99.99,,,0.00,Acu-Link.com,2013-02-23 11:36:00,
2013-02-23 06:51:00,29.5,27.2,30.16,SSW,202,1.7,-999.0,91,-99.99,,,0.00,Acu-Link.com,2013-02-23 11:51:00,
2013-02-23 07:06:00,30.0,27.7,30.16,SSW,202,0.0,-999.0,91,-99.99,,,0.00,Acu-Link.com,2013-02-23 12:06:00,
2013-02-23 07:21:00,30.4,27.6,30.16,SSW,202,0.0,-999.0,89,-99.99,,,0.00,Acu-Link.com,2013-02-23 12:21:00,
2013-02-23 07:36:00,30.7,27.8,30.16,SSE,157,0.0,-999.0,89,-99.99,,,0.00,Acu-Link.com,2013-02-23 12:36:00,
2013-02-23 07:51:00,31.6,28.2,30.15,SW,225,0.0,-999.0,87,-99.99,,,0.00,Acu-Link.com,2013-02-23 12:51:00,
2013-02-23 08:06:00,32.5,28.5,30.15,ESE,112,0.0,-999.0,85,-99.99,,,0.00,Acu-Link.com,2013-02-23 13:06:00,
2013-02-23 08:22:00,33.4,28.5,30.15,SSE,157,0.0,-999.0,82,-99.99,,,0.00,Acu-Link.com,2013-02-23 13:22:00,
2013-02-23 08:37:00,34.5,29.3,30.14,NNW,337,0.0,-999.0,81,-99.99,,,0.00,Acu-Link.com,2013-02-23 13:37:00,
2013-02-23 08:52:00,34.9,29.4,30.14,ESE,112,1.7,-999.0,80,-99.99,,,0.00,Acu-Link.com,2013-02-23 13:52:00,
2013-02-23 09:07:00,35.4,29.5,30.13,SSW,202,1.7,-999.0,79,-99.99,,,0.00,Acu-Link.com,2013-02-23 14:07:00,
2013-02-23 09:22:00,36.1,29.6,30.12,ESE,112,3.2,-999.0,77,-99.99,,,0.00,Acu-Link.com,2013-02-23 14:22:00,
2013-02-23 09:37:00,36.0,29.2,30.12,ESE,112,1.7,-999.0,76,-99.99,,,0.00,Acu-Link.com,2013-02-23 14:37:00,
2013-02-23 09:53:00,36.3,29.5,30.11,ENE,67,3.2,-999.0,76,-99.99,,,0.00,Acu-Link.com,2013-02-23 14:53:00,
2013-02-23 10:08:00,37.0,29.8,30.11,NNW,337,1.7,-999.0,75,-99.99,,,0.00,Acu-Link.com,2013-02-23 15:08:00,
2013-02-23 10:23:00,37.4,29.9,30.11,NW,315,3.2,-999.0,74,-99.99,,,0.00,Acu-Link.com,2013-02-23 15:23:00,
2013-02-23 10:38:00,37.4,29.6,30.11,NNE,22,5.3,-999.0,73,-99.99,,,0.00,Acu-Link.com,2013-02-23 15:38:00,
2013-02-23 10:53:00,37.6,30.1,30.10,South,180,4.7,-999.0,74,-99.99,,,0.00,Acu-Link.com,2013-02-23 15:53:00,
2013-02-23 11:08:00,37.6,29.7,30.08,SW,225,5.8,-999.0,73,-99.99,,,0.00,Acu-Link.com,2013-02-23 16:08:00,
2013-02-23 11:23:00,39.2,29.9,30.07,NE,45,2.7,-999.0,69,-99.99,,,0.00,Acu-Link.com,2013-02-23 16:23:00,
2013-02-23 11:38:00,37.8,29.6,30.07,SW,225,1.7,-999.0,72,-99.99,,,0.00,Acu-Link.com,2013-02-23 16:38:00,
2013-02-23 11:53:00,38.7,30.1,30.07,WSW,247,2.7,-999.0,71,-99.99,,,0.00,Acu-Link.com,2013-02-23 16:53:00,
2013-02-23 12:09:00,38.3,30.1,30.05,South,180,3.2,-999.0,72,-99.99,,,0.00,Acu-Link.com,2013-02-23 17:09:00,
2013-02-23 12:24:00,39.7,30.4,30.05,East,90,1.7,-999.0,69,-99.99,,,0.00,Acu-Link.com,2013-02-23 17:24:00,
2013-02-23 12:39:00,39.9,30.6,30.04,SW,225,1.1,-999.0,69,-99.99,,,0.00,Acu-Link.com,2013-02-23 17:39:00,
2013-02-23 12:54:00,39.0,30.4,30.03,SSW,202,0.0,-999.0,71,-99.99,,,0.00,Acu-Link.com,2013-02-23 17:54:00,
2013-02-23 13:09:00,40.1,30.4,30.03,North,0,2.7,-999.0,68,-99.99,,,0.00,Acu-Link.com,2013-02-23 18:09:00,
2013-02-23 13:24:00,38.8,29.9,30.02,SW,225,4.7,-999.0,70,-99.99,,,0.00,Acu-Link.com,2013-02-23 18:24:00,
2013-02-23 13:39:00,38.7,30.1,30.03,ENE,67,1.1,-999.0,71,-99.99,,,0.00,Acu-Link.com,2013-02-23 18:39:00,
2013-02-23 13:54:00,38.7,30.1,30.02,SSE,157,2.7,-999.0,71,-99.99,,,0.00,Acu-Link.com,2013-02-23 18:54:00,
2013-02-23 14:09:00,39.2,30.6,30.01,ESE,112,3.2,-999.0,71,-99.99,,,0.00,Acu-Link.com,2013-02-23 19:09:00,
2013-02-23 14:25:00,39.4,30.4,30.01,SSW,202,2.2,-999.0,70,-99.99,,,0.00,Acu-Link.com,2013-02-23 19:25:00,
2013-02-23 14:40:00,39.4,30.8,30.01,ENE,67,2.7,-999.0,71,-99.99,,,0.00,Acu-Link.com,2013-02-23 19:40:00,
2013-02-23 14:55:00,39.2,30.6,30.01,ESE,112,3.2,-999.0,71,-99.99,,,0.00,Acu-Link.com,2013-02-23 19:55:00,
2013-02-23 15:10:00,39.0,30.8,30.00,West,270,3.7,-999.0,72,-99.99,,,0.00,Acu-Link.com,2013-02-23 20:10:00,
2013-02-23 15:25:00,38.8,30.6,30.00,SW,225,1.7,-999.0,72,-99.99,,,0.00,Acu-Link.com,2013-02-23 20:25:00,
2013-02-23 15:40:00,38.5,30.6,29.99,ESE,112,2.2,-999.0,73,-99.99,,,0.00,Acu-Link.com,2013-02-23 20:40:00,
2013-02-23 15:55:00,38.3,30.8,29.98,ESE,112,1.1,-999.0,74,-99.99,,,0.00,Acu-Link.com,2013-02-23 20:55:00,
2013-02-23 16:10:00,38.3,30.4,29.98,ENE,67,2.2,-999.0,73,-99.99,,,0.00,Acu-Link.com,2013-02-23 21:10:00,
2013-02-23 16:25:00,37.9,30.7,29.97,SE,135,2.2,-999.0,75,-99.99,,,0.00,Acu-Link.com,2013-02-23 21:25:00,
2013-02-23 16:40:00,37.2,31.3,29.97,East,90,3.2,-999.0,79,-99.99,,,0.00,Acu-Link.com,2013-02-23 21:40:00,
2013-02-23 16:56:00,36.0,32.2,29.98,ESE,112,2.7,-999.0,86,-99.99,,,0.00,Acu-Link.com,2013-02-23 21:56:00,
2013-02-23 17:11:00,34.7,32.6,29.97,SE,135,1.7,-999.0,92,-99.99,,,0.00,Acu-Link.com,2013-02-23 22:11:00,
2013-02-23 17:26:00,34.0,32.7,29.96,NNE,22,1.7,-999.0,95,-99.99,,,0.00,Acu-Link.com,2013-02-23 22:26:00,
2013-02-23 17:41:00,33.4,32.4,29.95,North,0,1.7,-999.0,96,-99.99,,,0.00,Acu-Link.com,2013-02-23 22:41:00,
2013-02-23 17:56:00,33.1,32.6,29.95,NNW,337,0.0,-999.0,98,-99.99,,,0.00,Acu-Link.com,2013-02-23 22:56:00,
2013-02-23 18:11:00,32.9,32.4,29.95,WNW,292,0.0,-999.0,98,-99.99,,,0.00,Acu-Link.com,2013-02-23 23:11:00,
2013-02-23 18:27:00,32.7,32.5,29.95,NNW,337,0.0,-999.0,99,-99.99,,,0.00,Acu-Link.com,2013-02-23 23:27:00,
2013-02-23 18:42:00,32.5,32.3,29.93,NNW,337,0.0,-999.0,99,-99.99,,,0.00,Acu-Link.com,2013-02-23 23:42:00,
2013-02-23 18:57:00,32.5,32.3,29.94,NNW,337,0.0,-999.0,99,-99.99,,,0.00,Acu-Link.com,2013-02-23 23:57:00,
2013-02-23 19:12:00,32.5,32.3,29.94,West,270,0.0,-999.0,99,-99.99,,,0.00,Acu-Link.com,2013-02-24 00:12:00,
2013-02-23 19:27:00,32.4,32.2,29.93,East,90,0.0,-999.0,99,-99.99,,,0.00,Acu-Link.com,2013-02-24 00:27:00,
2013-02-23 19:42:00,32.4,32.2,29.91,NNE,22,2.2,-999.0,99,-99.99,,,0.00,Acu-Link.com,2013-02-24 00:42:00,
2013-02-23 19:57:00,32.4,32.2,29.91,NNW,337,0.0,-999.0,99,-99.99,,,0.00,Acu-Link.com,2013-02-24 00:57:00,
2013-02-23 20:12:00,32.4,32.2,29.91,West,270,0.0,-999.0,99,-99.99,,,0.00,Acu-Link.com,2013-02-24 01:12:00,
2013-02-23 20:28:00,32.4,32.2,29.90,NNW,337,0.0,-999.0,99,-99.99,,,0.00,Acu-Link.com,2013-02-24 01:28:00,
2013-02-23 20:43:00,32.4,32.2,29.90,West,270,0.0,-999.0,99,-99.99,,,0.00,Acu-Link.com,2013-02-24 01:43:00,
2013-02-23 20:59:00,32.4,32.2,29.89,North,0,1.1,-999.0,99,-99.99,,,0.00,Acu-Link.com,2013-02-24 01:59:00,
2013-02-23 21:14:00,32.4,32.2,29.87,WNW,292,1.1,-999.0,99,-99.99,,,0.00,Acu-Link.com,2013-02-24 02:14:00,
2013-02-23 21:30:00,32.4,32.2,29.87,WNW,292,0.0,-999.0,99,-99.99,,,0.00,Acu-Link.com,2013-02-24 02:30:00,
2013-02-23 21:45:00,32.4,32.2,29.86,West,270,0.0,-999.0,99,-99.99,,,0.00,Acu-Link.com,2013-02-24 02:45:00,
2013-02-23 22:00:00,32.4,32.2,29.85,ENE,67,0.0,-999.0,99,-99.99,,,0.00,Acu-Link.com,2013-02-24 03:00:00,
2013-02-23 22:15:00,32.4,32.2,29.84,NW,315,1.7,-999.0,99,-99.99,,,0.00,Acu-Link.com,2013-02-24 03:15:00,
2013-02-23 22:31:00,32.4,32.2,29.84,West,270,0.0,-999.0,99,-99.99,,,0.01,Acu-Link.com,2013-02-24 03:31:00,
2013-02-23 22:46:00,32.4,32.2,29.83,WNW,292,0.0,-999.0,99,-99.99,,,0.04,Acu-Link.com,2013-02-24 03:46:00,
2013-02-23 23:01:00,32.4,32.2,29.82,NW,315,0.0,-999.0,99,-99.99,,,0.05,Acu-Link.com,2013-02-24 04:01:00,
2013-02-23 23:16:00,32.4,32.2,29.82,NW,315,1.1,-999.0,99,-99.99,,,0.06,Acu-Link.com,2013-02-24 04:16:00,
2013-02-23 23:31:00,32.4,32.2,29.81,WSW,247,0.0,-999.0,99,-99.99,,,0.07,Acu-Link.com,2013-02-24 04:31:00,
2013-02-23 23:46:00,32.4,32.2,29.80,ESE,112,1.1,-999.0,99,-99.99,,,0.09,Acu-Link.com,2013-02-24 04:46:00,